Time,TemperatureF,DewpointF,PressureIn,WindDirection,WindDirectionDegrees,WindSpeedMPH,WindSpeedGustMPH,Humidity,HourlyPrecipIn,Conditions,Clouds,dailyrainin,SoftwareType,DateUTC
2013-02-20 00:03:00,34.0,27.0,29.66,SW,225,10.0,12.0,79,0.00,,,0.00,TxWx,2013-02-20 05:03:00,
2013-02-20 00:08:00,34.0,27.0,29.67,NW,315,11.0,11.0,79,0.00,,,0.00,TxWx,2013-02-20 05:08:00,
2013-02-20 00:13:00,34.0,27.0,29.67,West,270,9.0,14.0,79,0.00,,,0.00,TxWx,2013-02-20 05:13:00,
2013-02-20 00:18:00,34.0,27.0,29.67,WSW,247,10.0,11.0,79,0.00,,,0.00,TxWx,2013-02-20 05:18:00,
2013-02-20 00:23:00,34.0,27.0,29.68,WSW,247,12.0,12.0,79,0.00,,,0.00,TxWx,2013-02-20 05:23:00,
2013-02-20 00:31:00,34.0,27.0,29.68,SSW,202,3.0,5.0,79,0.00,,,0.00,TxWx,2013-02-20 05:31:00,
2013-02-20 00:36:00,34.0,27.0,29.68,WNW,292,2.0,2.0,79,0.00,,,0.00,TxWx,2013-02-20 05:36:00,
2013-02-20 00:41:00,33.0,26.0,29.68,South,180,3.0,3.0,80,0.00,,,0.00,TxWx,2013-02-20 05:41:00,
2013-02-20 00:46:00,33.0,26.0,29.68,WSW,247,3.0,5.0,80,0.00,,,0.00,TxWx,2013-02-20 05:46:00,
2013-02-20 00:51:00,33.0,26.0,29.68,WSW,247,5.0,6.0,80,0.00,,,0.00,TxWx,2013-02-20 05:51:00,
2013-02-20 00:56:00,33.0,26.0,29.68,East,90,1.0,1.0,80,0.00,,,0.00,TxWx,2013-02-20 05:56:00,
2013-02-20 01:01:00,34.0,27.0,29.68,East,90,1.0,2.0,80,0.00,,,0.00,TxWx,2013-02-20 06:01:00,
2013-02-20 01:07:00,33.0,27.0,29.68,West,270,5.0,7.0,80,0.00,,,0.00,TxWx,2013-02-20 06:07:00,
2013-02-20 01:12:00,33.0,27.0,29.68,WNW,292,8.0,9.0,80,0.00,,,0.00,TxWx,2013-02-20 06:12:00,
2013-02-20 01:17:00,33.0,27.0,29.68,WNW,292,5.0,7.0,80,0.00,,,0.00,TxWx,2013-02-20 06:17:00,
2013-02-20 01:22:00,33.0,27.0,29.68,NNW,337,0.0,1.0,80,0.00,,,0.00,TxWx,2013-02-20 06:22:00,
2013-02-20 01:27:00,33.0,27.0,29.68,SW,225,5.0,6.0,80,0.00,,,0.00,TxWx,2013-02-20 06:27:00,
2013-02-20 01:32:00,33.0,27.0,29.68,NNW,337,3.0,5.0,80,0.00,,,0.00,TxWx,2013-02-20 06:32:00,
2013-02-20 01:37:00,33.0,27.0,29.68,WSW,247,5.0,5.0,80,0.00,,,0.00,TxWx,2013-02-20 06:37:00,
2013-02-20 01:42:00,33.0,27.0,29.68,West,270,8.0,14.0,80,0.00,,,0.00,TxWx,2013-02-20 06:42:00,
2013-02-20 01:47:00,33.0,27.0,29.69,West,270,6.0,8.0,80,0.00,,,0.00,TxWx,2013-02-20 06:47:00,
2013-02-20 01:52:00,33.0,27.0,29.69,West,270,6.0,6.0,80,0.00,,,0.00,TxWx,2013-02-20 06:52:00,
2013-02-20 01:57:00,33.0,27.0,29.69,WSW,247,6.0,8.0,80,0.00,,,0.00,TxWx,2013-02-20 06:57:00,
2013-02-20 02:02:00,33.0,26.0,29.69,NW,315,12.0,14.0,80,0.00,,,0.00,TxWx,2013-02-20 07:02:00,
2013-02-20 02:07:00,33.0,26.0,29.70,West,270,6.0,6.0,79,0.00,,,0.00,TxWx,2013-02-20 07:07:00,
2013-02-20 02:12:00,33.0,26.0,29.70,NW,315,8.0,12.0,78,0.00,,,0.00,TxWx,2013-02-20 07:12:00,
2013-02-20 02:17:00,32.0,24.0,29.70,NNE,22,3.0,8.0,76,0.00,,,0.00,TxWx,2013-02-20 07:17:00,
2013-02-20 02:22:00,32.0,24.0,29.70,WNW,292,5.0,7.0,77,0.00,,,0.00,TxWx,2013-02-20 07:22:00,
2013-02-20 02:27:00,32.0,24.0,29.71,WSW,247,3.0,6.0,76,0.00,,,0.00,TxWx,2013-02-20 07:27:00,
2013-02-20 02:32:00,32.0,24.0,29.71,West,270,11.0,11.0,75,0.00,,,0.00,TxWx,2013-02-20 07:32:00,
2013-02-20 02:37:00,32.0,24.0,29.71,NNW,337,5.0,9.0,74,0.00,,,0.00,TxWx,2013-02-20 07:37:00,
2013-02-20 02:42:00,32.0,23.0,29.71,WSW,247,16.0,19.0,74,0.00,,,0.00,TxWx,2013-02-20 07:42:00,
2013-02-20 02:47:00,32.0,23.0,29.71,WNW,292,11.0,11.0,72,0.00,,,0.00,TxWx,2013-02-20 07:47:00,
2013-02-20 02:53:00,32.0,22.0,29.71,West,270,6.0,7.0,71,0.00,,,0.00,TxWx,2013-02-20 07:53:00,
2013-02-20 02:58:00,32.0,22.0,29.72,West,270,8.0,8.0,70,0.00,,,0.00,TxWx,2013-02-20 07:58:00,
2013-02-20 03:06:00,31.0,20.0,29.71,West,270,6.0,8.0,67,0.00,,,0.00,TxWx,2013-02-20 08:06:00,
2013-02-20 03:11:00,31.0,20.0,29.72,SW,225,6.0,7.0,68,0.00,,,0.00,TxWx,2013-02-20 08:11:00,
2013-02-20 03:16:00,31.0,20.0,29.72,WSW,247,13.0,14.0,68,0.00,,,0.00,TxWx,2013-02-20 08:16:00,
2013-02-20 03:21:00,31.0,20.0,29.72,SW,225,13.0,13.0,66,0.00,,,0.00,TxWx,2013-02-20 08:21:00,
2013-02-20 03:26:00,31.0,20.0,29.72,NW,315,5.0,8.0,65,0.00,,,0.00,TxWx,2013-02-20 08:26:00,
2013-02-20 03:31:00,31.0,19.0,29.72,West,270,7.0,8.0,64,0.00,,,0.00,TxWx,2013-02-20 08:31:00,
2013-02-20 03:36:00,31.0,19.0,29.72,West,270,11.0,11.0,65,0.00,,,0.00,TxWx,2013-02-20 08:36:00,
2013-02-20 03:41:00,31.0,20.0,29.72,East,90,1.0,6.0,65,0.00,,,0.00,TxWx,2013-02-20 08:41:00,
2013-02-20 03:46:00,31.0,19.0,29.72,WSW,247,13.0,17.0,65,0.00,,,0.00,TxWx,2013-02-20 08:46:00,
2013-02-20 03:51:00,31.0,19.0,29.73,West,270,11.0,13.0,65,0.00,,,0.00,TxWx,2013-02-20 08:51:00,
2013-02-20 03:56:00,30.0,19.0,29.72,WSW,247,20.0,20.0,65,0.00,,,0.00,TxWx,2013-02-20 08:56:00,
2013-02-20 04:01:00,30.0,19.0,29.73,North,0,10.0,13.0,66,0.00,,,0.00,TxWx,2013-02-20 09:01:00,
2013-02-20 04:06:00,30.0,19.0,29.73,South,180,2.0,3.0,66,0.00,,,0.00,TxWx,2013-02-20 09:06:00,
2013-02-20 04:11:00,30.0,19.0,29.73,SW,225,11.0,11.0,66,0.00,,,0.00,TxWx,2013-02-20 09:11:00,
2013-02-20 04:16:00,30.0,19.0,29.73,West,270,7.0,7.0,67,0.00,,,0.00,TxWx,2013-02-20 09:16:00,
2013-02-20 04:22:00,30.0,19.0,29.73,WSW,247,8.0,8.0,67,0.00,,,0.00,TxWx,2013-02-20 09:22:00,
2013-02-20 04:27:00,30.0,19.0,29.73,SW,225,4.0,5.0,67,0.00,,,0.00,TxWx,2013-02-20 09:27:00,
2013-02-20 04:32:00,30.0,20.0,29.73,West,270,5.0,8.0,68,0.00,,,0.00,TxWx,2013-02-20 09:32:00,
2013-02-20 04:37:00,30.0,20.0,29.73,WNW,292,3.0,5.0,68,0.00,,,0.00,TxWx,2013-02-20 09:37:00,
2013-02-20 04:42:00,30.0,20.0,29.73,WSW,247,5.0,5.0,69,0.00,,,0.00,TxWx,2013-02-20 09:42:00,
2013-02-20 04:47:00,30.0,20.0,29.73,WSW,247,3.0,3.0,69,0.00,,,0.00,TxWx,2013-02-20 09:47:00,
2013-02-20 04:52:00,29.0,19.0,29.74,SSW,202,3.0,8.0,69,0.00,,,0.00,TxWx,2013-02-20 09:52:00,
2013-02-20 04:57:00,29.0,19.0,29.74,WNW,292,3.0,6.0,69,0.00,,,0.00,TxWx,2013-02-20 09:57:00,
2013-02-20 05:02:00,29.0,19.0,29.74,South,180,5.0,6.0,69,0.00,,,0.00,TxWx,2013-02-20 10:02:00,
2013-02-20 05:07:00,29.0,19.0,29.74,SSW,202,10.0,11.0,69,0.00,,,0.00,TxWx,2013-02-20 10:07:00,
2013-02-20 05:12:00,29.0,19.0,29.74,SSW,202,5.0,7.0,69,0.00,,,0.00,TxWx,2013-02-20 10:12:00,
2013-02-20 05:17:00,29.0,19.0,29.74,WSW,247,5.0,10.0,69,0.00,,,0.00,TxWx,2013-02-20 10:17:00,
2013-02-20 05:22:00,29.0,19.0,29.74,South,180,6.0,7.0,69,0.00,,,0.00,TxWx,2013-02-20 10:22:00,
2013-02-20 05:27:00,29.0,19.0,29.74,SSE,157,2.0,3.0,69,0.00,,,0.00,TxWx,2013-02-20 10:27:00,
2013-02-20 05:32:00,29.0,19.0,29.74,WSW,247,4.0,5.0,70,0.00,,,0.00,TxWx,2013-02-20 10:32:00,
2013-02-20 05:38:00,29.0,19.0,29.74,South,180,0.0,1.0,70,0.00,,,0.00,TxWx,2013-02-20 10:38:00,
2013-02-20 05:43:00,29.0,19.0,29.74,NW,315,3.0,3.0,70,0.00,,,0.00,TxWx,2013-02-20 10:43:00,
2013-02-20 05:48:00,29.0,19.0,29.74,West,270,4.0,5.0,70,0.00,,,0.00,TxWx,2013-02-20 10:48:00,
2013-02-20 05:53:00,29.0,19.0,29.74,West,270,5.0,6.0,70,0.00,,,0.00,TxWx,2013-02-20 10:53:00,
2013-02-20 05:58:00,29.0,19.0,29.74,SSE,157,0.0,1.0,70,0.00,,,0.00,TxWx,2013-02-20 10:58:00,
2013-02-20 06:03:00,29.0,19.0,29.74,WNW,292,3.0,4.0,70,0.00,,,0.00,TxWx,2013-02-20 11:03:00,
2013-02-20 06:08:00,29.0,20.0,29.74,SSW,202,3.0,6.0,71,0.00,,,0.00,TxWx,2013-02-20 11:08:00,
2013-02-20 06:13:00,29.0,20.0,29.74,SSE,157,2.0,3.0,71,0.00,,,0.00,TxWx,2013-02-20 11:13:00,
2013-02-20 06:18:00,29.0,20.0,29.74,South,180,8.0,12.0,71,0.00,,,0.00,TxWx,2013-02-20 11:18:00,
2013-02-20 06:23:00,29.0,19.0,29.74,SW,225,3.0,6.0,70,0.00,,,0.00,TxWx,2013-02-20 11:23:00,
2013-02-20 06:28:00,29.0,19.0,29.74,WSW,247,8.0,8.0,70,0.00,,,0.00,TxWx,2013-02-20 11:28:00,
2013-02-20 06:33:00,29.0,19.0,29.74,WSW,247,6.0,7.0,69,0.00,,,0.00,TxWx,2013-02-20 11:33:00,
2013-02-20 06:38:00,29.0,19.0,29.75,SSW,202,6.0,8.0,69,0.00,,,0.00,TxWx,2013-02-20 11:38:00,
2013-02-20 06:43:00,29.0,19.0,29.75,South,180,2.0,5.0,69,0.00,,,0.00,TxWx,2013-02-20 11:43:00,
2013-02-20 06:48:00,29.0,19.0,29.75,SSW,202,8.0,10.0,69,0.00,,,0.00,TxWx,2013-02-20 11:48:00,
2013-02-20 06:54:00,28.0,18.0,29.76,SW,225,10.0,10.0,68,0.00,,,0.00,TxWx,2013-02-20 11:54:00,
2013-02-20 06:59:00,28.0,18.0,29.76,SW,225,3.0,6.0,68,0.00,,,0.00,TxWx,2013-02-20 11:59:00,
2013-02-20 07:04:00,28.0,17.0,29.76,WSW,247,13.0,15.0,67,0.00,,,0.00,TxWx,2013-02-20 12:04:00,
2013-02-20 07:09:00,28.0,17.0,29.76,SW,225,17.0,17.0,67,0.00,,,0.00,TxWx,2013-02-20 12:09:00,
2013-02-20 07:14:00,28.0,17.0,29.76,NW,315,5.0,6.0,67,0.00,,,0.00,TxWx,2013-02-20 12:14:00,
2013-02-20 07:19:00,28.0,17.0,29.76,NW,315,4.0,4.0,67,0.00,,,0.00,TxWx,2013-02-20 12:19:00,
2013-02-20 07:24:00,28.0,18.0,29.76,SW,225,3.0,3.0,68,0.00,,,0.00,TxWx,2013-02-20 12:24:00,
2013-02-20 07:29:00,28.0,18.0,29.76,WNW,292,8.0,10.0,68,0.00,,,0.00,TxWx,2013-02-20 12:29:00,
2013-02-20 07:34:00,28.0,18.0,29.77,SSW,202,8.0,8.0,68,0.00,,,0.00,TxWx,2013-02-20 12:34:00,
2013-02-20 07:39:00,28.0,18.0,29.77,SSW,202,9.0,10.0,69,0.00,,,0.00,TxWx,2013-02-20 12:39:00,
2013-02-20 07:44:00,28.0,18.0,29.77,South,180,8.0,10.0,69,0.00,,,0.00,TxWx,2013-02-20 12:44:00,
2013-02-20 07:49:00,28.0,18.0,29.77,SW,225,8.0,8.0,70,0.00,,,0.00,TxWx,2013-02-20 12:49:00,
2013-02-20 07:54:00,28.0,18.0,29.77,NNE,22,3.0,5.0,70,0.00,,,0.00,TxWx,2013-02-20 12:54:00,
2013-02-20 08:00:00,28.0,18.0,29.77,SSW,202,4.0,10.0,70,0.00,,,0.00,TxWx,2013-02-20 13:00:00,
2013-02-20 08:05:00,28.0,18.0,29.78,SW,225,6.0,6.0,70,0.00,,,0.00,TxWx,2013-02-20 13:05:00,
2013-02-20 08:10:00,28.0,19.0,29.78,WSW,247,5.0,7.0,71,0.00,,,0.00,TxWx,2013-02-20 13:10:00,
2013-02-20 08:14:00,27.0,13.0,29.86,WSW,247,10.0,10.0,59,0.00,,,0.00,TxWx,2013-02-20 13:14:00,
2013-02-20 08:15:00,28.0,19.0,29.77,WSW,247,4.0,4.0,71,0.00,,,0.00,TxWx,2013-02-20 13:15:00,
2013-02-20 08:20:00,28.0,19.0,29.78,SW,225,11.0,14.0,71,0.00,,,0.00,TxWx,2013-02-20 13:20:00,
2013-02-20 08:21:00,27.0,13.0,29.87,West,270,15.0,15.0,58,0.00,,,0.00,TxWx,2013-02-20 13:21:00,
2013-02-20 08:22:00,27.0,13.0,29.87,West,270,15.0,15.0,58,0.00,,,0.00,TxWx,2013-02-20 13:22:00,
2013-02-20 08:23:00,27.0,13.0,29.87,West,270,8.0,8.0,58,0.00,,,0.00,TxWx,2013-02-20 13:23:00,
2013-02-20 08:25:00,28.0,19.0,29.78,SW,225,9.0,12.0,71,0.00,,,0.00,TxWx,2013-02-20 13:25:00,
2013-02-20 08:30:00,28.0,18.0,29.77,South,180,5.0,12.0,69,0.00,,,0.00,TxWx,2013-02-20 13:30:00,
2013-02-20 08:35:00,28.0,18.0,29.77,WSW,247,8.0,9.0,69,0.00,,,0.00,TxWx,2013-02-20 13:35:00,
2013-02-20 08:40:00,29.0,19.0,29.77,SW,225,6.0,7.0,69,0.00,,,0.00,TxWx,2013-02-20 13:40:00,
2013-02-20 08:45:00,29.0,19.0,29.77,NNW,337,5.0,10.0,68,0.00,,,0.00,TxWx,2013-02-20 13:45:00,
2013-02-20 08:50:00,29.0,18.0,29.77,WSW,247,10.0,11.0,67,0.00,,,0.00,TxWx,2013-02-20 13:50:00,
2013-02-20 08:52:00,27.0,14.0,29.87,NW,315,3.0,3.0,60,0.00,,,0.00,TxWx,2013-02-20 13:52:00,
2013-02-20 08:55:00,29.0,18.0,29.77,South,180,9.0,10.0,65,0.00,,,0.00,TxWx,2013-02-20 13:55:00,
2013-02-20 09:00:00,29.0,17.0,29.77,South,180,14.0,14.0,64,0.00,,,0.00,TxWx,2013-02-20 14:00:00,
2013-02-20 09:05:00,28.0,16.0,29.77,SW,225,11.0,11.0,63,0.00,,,0.00,TxWx,2013-02-20 14:05:00,
2013-02-20 09:10:00,29.0,17.0,29.77,SSW,202,5.0,6.0,64,0.00,,,0.00,TxWx,2013-02-20 14:10:00,
2013-02-20 09:16:00,29.0,17.0,29.77,SW,225,11.0,11.0,63,0.00,,,0.00,TxWx,2013-02-20 14:16:00,
2013-02-20 09:21:00,29.0,16.0,29.77,SSW,202,10.0,12.0,62,0.00,,,0.00,TxWx,2013-02-20 14:21:00,
2013-02-20 09:26:00,29.0,16.0,29.77,SSW,202,10.0,13.0,62,0.00,,,0.00,TxWx,2013-02-20 14:26:00,
2013-02-20 09:31:00,29.0,16.0,29.77,SW,225,6.0,12.0,61,0.00,,,0.00,TxWx,2013-02-20 14:31:00,
2013-02-20 09:36:00,29.0,16.0,29.77,WSW,247,11.0,11.0,60,0.00,,,0.00,TxWx,2013-02-20 14:36:00,
2013-02-20 09:41:00,29.0,15.0,29.77,South,180,13.0,13.0,59,0.00,,,0.00,TxWx,2013-02-20 14:41:00,
2013-02-20 09:46:00,29.0,15.0,29.76,South,180,4.0,4.0,58,0.00,,,0.00,TxWx,2013-02-20 14:46:00,
2013-02-20 09:51:00,30.0,14.0,29.77,SW,225,15.0,18.0,54,0.00,,,0.00,TxWx,2013-02-20 14:51:00,
2013-02-20 09:56:00,30.0,14.0,29.77,West,270,8.0,8.0,54,0.00,,,0.00,TxWx,2013-02-20 14:56:00,
2013-02-20 10:00:00,26.0,14.0,29.87,West,270,8.0,9.0,64,0.00,,,0.00,TxWx,2013-02-20 15:00:00,
2013-02-20 10:01:00,30.0,14.0,29.77,SW,225,10.0,14.0,53,0.00,,,0.00,TxWx,2013-02-20 15:01:00,
2013-02-20 10:02:00,26.0,14.0,29.87,WSW,247,2.0,4.0,64,0.00,,,0.00,TxWx,2013-02-20 15:02:00,
2013-02-20 10:03:00,26.0,14.0,29.87,WSW,247,8.0,9.0,64,0.00,,,0.00,TxWx,2013-02-20 15:03:00,
2013-02-20 10:04:00,26.0,14.0,29.87,WSW,247,7.0,8.0,64,0.00,,,0.00,TxWx,2013-02-20 15:04:00,
2013-02-20 10:05:00,26.0,14.0,29.87,South,180,8.0,8.0,64,0.00,,,0.00,TxWx,2013-02-20 15:05:00,
2013-02-20 10:06:00,30.0,13.0,29.77,West,270,14.0,16.0,52,0.00,,,0.00,TxWx,2013-02-20 15:06:00,
2013-02-20 10:07:00,26.0,14.0,29.87,WSW,247,9.0,18.0,64,0.00,,,0.00,TxWx,2013-02-20 15:07:00,
2013-02-20 10:11:00,31.0,14.0,29.77,West,270,5.0,8.0,52,0.00,,,0.00,TxWx,2013-02-20 15:11:00,
2013-02-20 10:16:00,30.0,12.0,29.77,WSW,247,16.0,20.0,48,0.00,,,0.00,TxWx,2013-02-20 15:16:00,
2013-02-20 10:21:00,30.0,12.0,29.77,WSW,247,10.0,13.0,49,0.00,,,0.00,TxWx,2013-02-20 15:21:00,
2013-02-20 10:27:00,30.0,11.0,29.77,WSW,247,7.0,10.0,47,0.00,,,0.00,TxWx,2013-02-20 15:27:00,
2013-02-20 10:32:00,30.0,10.0,29.77,SW,225,13.0,13.0,45,0.00,,,0.00,TxWx,2013-02-20 15:32:00,
2013-02-20 10:37:00,30.0,10.0,29.77,West,270,11.0,13.0,45,0.00,,,0.00,TxWx,2013-02-20 15:37:00,
2013-02-20 10:42:00,30.0,10.0,29.77,SW,225,4.0,9.0,44,0.00,,,0.00,TxWx,2013-02-20 15:42:00,
2013-02-20 10:47:00,31.0,11.0,29.77,West,270,10.0,15.0,44,0.00,,,0.00,TxWx,2013-02-20 15:47:00,
2013-02-20 10:52:00,30.0,10.0,29.78,SW,225,10.0,18.0,44,0.00,,,0.00,TxWx,2013-02-20 15:52:00,
2013-02-20 10:57:00,30.0,10.0,29.77,SSE,157,4.0,6.0,44,0.00,,,0.00,TxWx,2013-02-20 15:57:00,
2013-02-20 11:02:00,30.0,9.0,29.77,SSW,202,16.0,16.0,43,0.00,,,0.00,TxWx,2013-02-20 16:02:00,
2013-02-20 11:07:00,30.0,10.0,29.77,WNW,292,11.0,15.0,44,0.00,,,0.00,TxWx,2013-02-20 16:07:00,
2013-02-20 11:12:00,31.0,11.0,29.77,South,180,13.0,15.0,45,0.00,,,0.00,TxWx,2013-02-20 16:12:00,
2013-02-20 11:17:00,31.0,11.0,29.77,SW,225,18.0,21.0,44,0.00,,,0.00,TxWx,2013-02-20 16:17:00,
2013-02-20 11:22:00,30.0,9.0,29.77,SW,225,14.0,14.0,44,0.00,,,0.00,TxWx,2013-02-20 16:22:00,
2013-02-20 11:27:00,30.0,10.0,29.77,South,180,10.0,19.0,44,0.00,,,0.00,TxWx,2013-02-20 16:27:00,
2013-02-20 11:33:00,30.0,10.0,29.77,SSE,157,16.0,21.0,45,0.00,,,0.00,TxWx,2013-02-20 16:33:00,
2013-02-20 11:38:00,31.0,11.0,29.77,West,270,9.0,9.0,45,0.00,,,0.00,TxWx,2013-02-20 16:38:00,
2013-02-20 11:43:00,30.0,10.0,29.77,SW,225,24.0,24.0,45,0.00,,,0.00,TxWx,2013-02-20 16:43:00,
2013-02-20 11:48:00,30.0,10.0,29.77,SSE,157,8.0,10.0,45,0.00,,,0.00,TxWx,2013-02-20 16:48:00,
2013-02-20 11:53:00,30.0,10.0,29.77,SW,225,18.0,21.0,45,0.00,,,0.00,TxWx,2013-02-20 16:53:00,
2013-02-20 11:58:00,30.0,11.0,29.77,SW,225,13.0,13.0,46,0.00,,,0.00,TxWx,2013-02-20 16:58:00,
2013-02-20 12:03:00,30.0,11.0,29.76,West,270,14.0,14.0,47,0.00,,,0.00,TxWx,2013-02-20 17:03:00,
2013-02-20 12:08:00,30.0,11.0,29.76,SW,225,10.0,10.0,47,0.00,,,0.00,TxWx,2013-02-20 17:08:00,
2013-02-20 12:13:00,30.0,11.0,29.75,South,180,4.0,9.0,47,0.00,,,0.00,TxWx,2013-02-20 17:13:00,
2013-02-20 12:18:00,30.0,10.0,29.76,WSW,247,14.0,20.0,45,0.00,,,0.00,TxWx,2013-02-20 17:18:00,
2013-02-20 12:23:00,30.0,11.0,29.76,SSW,202,8.0,9.0,46,0.00,,,0.00,TxWx,2013-02-20 17:23:00,
2013-02-20 12:28:00,30.0,11.0,29.75,South,180,10.0,12.0,46,0.00,,,0.00,TxWx,2013-02-20 17:28:00,
2013-02-20 12:33:00,30.0,9.0,29.76,West,270,14.0,16.0,44,0.00,,,0.00,TxWx,2013-02-20 17:33:00,
2013-02-20 12:39:00,30.0,10.0,29.76,WSW,247,15.0,15.0,44,0.00,,,0.00,TxWx,2013-02-20 17:39:00,
2013-02-20 12:44:00,30.0,10.0,29.76,SSW,202,13.0,14.0,44,0.00,,,0.00,TxWx,2013-02-20 17:44:00,
2013-02-20 12:49:00,30.0,10.0,29.76,SSW,202,8.0,14.0,44,0.00,,,0.00,TxWx,2013-02-20 17:49:00,
2013-02-20 12:54:00,30.0,10.0,29.76,WSW,247,11.0,18.0,45,0.00,,,0.00,TxWx,2013-02-20 17:54:00,
2013-02-20 12:59:00,30.0,10.0,29.75,WNW,292,7.0,10.0,46,0.00,,,0.00,TxWx,2013-02-20 17:59:00,
2013-02-20 13:04:00,30.0,10.0,29.76,WSW,247,9.0,10.0,46,0.00,,,0.00,TxWx,2013-02-20 18:04:00,
2013-02-20 13:07:00,26.0,16.0,29.92,SSE,157,6.0,6.0,70,0.00,,,0.00,TxWx,2013-02-20 18:07:00,
2013-02-20 13:08:00,26.0,16.0,29.92,WNW,292,3.0,6.0,70,0.00,,,0.00,TxWx,2013-02-20 18:08:00,
2013-02-20 13:09:00,30.0,10.0,29.76,SW,225,8.0,10.0,46,0.00,,,0.00,TxWx,2013-02-20 18:09:00,
2013-02-20 13:10:00,26.0,16.0,29.92,SSW,202,4.0,4.0,70,0.00,,,0.00,TxWx,2013-02-20 18:10:00,
2013-02-20 13:14:00,30.0,10.0,29.76,South,180,6.0,9.0,45,0.00,,,0.00,TxWx,2013-02-20 18:14:00,
2013-02-20 13:19:00,30.0,10.0,29.76,WSW,247,10.0,21.0,44,0.00,,,0.00,TxWx,2013-02-20 18:19:00,
2013-02-20 13:24:00,30.0,10.0,29.76,SSW,202,9.0,11.0,45,0.00,,,0.00,TxWx,2013-02-20 18:24:00,
2013-02-20 13:29:00,30.0,10.0,29.76,WSW,247,18.0,21.0,44,0.00,,,0.00,TxWx,2013-02-20 18:29:00,
2013-02-20 13:34:00,31.0,11.0,29.76,SW,225,8.0,10.0,45,0.00,,,0.00,TxWx,2013-02-20 18:34:00,
2013-02-20 13:40:00,31.0,12.0,29.76,SW,225,11.0,11.0,46,0.00,,,0.00,TxWx,2013-02-20 18:40:00,
2013-02-20 13:45:00,31.0,12.0,29.77,WSW,247,13.0,15.0,46,0.00,,,0.00,TxWx,2013-02-20 18:45:00,
2013-02-20 13:50:00,30.0,11.0,29.77,WSW,247,8.0,9.0,46,0.00,,,0.00,TxWx,2013-02-20 18:50:00,
2013-02-20 13:55:00,30.0,11.0,29.77,WSW,247,13.0,13.0,47,0.00,,,0.00,TxWx,2013-02-20 18:55:00,
2013-02-20 14:00:00,30.0,11.0,29.77,WSW,247,12.0,14.0,47,0.00,,,0.00,TxWx,2013-02-20 19:00:00,
2013-02-20 14:01:00,27.0,17.0,29.92,South,180,6.0,6.0,69,0.00,,,0.00,TxWx,2013-02-20 19:01:00,
2013-02-20 14:02:00,27.0,17.0,29.92,South,180,6.0,8.0,69,0.00,,,0.00,TxWx,2013-02-20 19:02:00,
2013-02-20 14:03:00,27.0,17.0,29.92,SSE,157,6.0,9.0,69,0.00,,,0.00,TxWx,2013-02-20 19:03:00,
2013-02-20 14:04:00,27.0,17.0,29.92,SSE,157,0.0,2.0,69,0.00,,,0.00,TxWx,2013-02-20 19:04:00,
2013-02-20 14:05:00,29.0,10.0,29.77,WSW,247,9.0,13.0,47,0.00,,,0.00,TxWx,2013-02-20 19:05:00,
2013-02-20 14:10:00,30.0,11.0,29.77,West,270,10.0,10.0,48,0.00,,,0.00,TxWx,2013-02-20 19:10:00,
2013-02-20 14:15:00,30.0,11.0,29.77,WSW,247,15.0,15.0,47,0.00,,,0.00,TxWx,2013-02-20 19:15:00,
2013-02-20 14:20:00,29.0,10.0,29.78,WSW,247,13.0,23.0,47,0.00,,,0.00,TxWx,2013-02-20 19:20:00,
2013-02-20 14:25:00,29.0,11.0,29.78,WSW,247,8.0,14.0,48,0.00,,,0.00,TxWx,2013-02-20 19:25:00,
2013-02-20 14:29:00,26.0,16.0,29.93,West,270,8.0,10.0,68,0.00,,,0.00,TxWx,2013-02-20 19:29:00,
2013-02-20 14:30:00,26.0,16.0,29.93,WSW,247,6.0,11.0,68,0.00,,,0.00,TxWx,2013-02-20 19:30:00,
2013-02-20 14:31:00,29.0,11.0,29.78,SSW,202,10.0,16.0,48,0.00,,,0.00,TxWx,2013-02-20 19:31:00,
2013-02-20 14:32:00,26.0,16.0,29.92,SW,225,6.0,7.0,68,0.00,,,0.00,TxWx,2013-02-20 19:32:00,
2013-02-20 14:36:00,29.0,11.0,29.78,WSW,247,10.0,13.0,48,0.00,,,0.00,TxWx,2013-02-20 19:36:00,
2013-02-20 14:41:00,29.0,11.0,29.78,SSW,202,13.0,13.0,49,0.00,,,0.00,TxWx,2013-02-20 19:41:00,
2013-02-20 14:46:00,29.0,11.0,29.79,SW,225,14.0,19.0,49,0.00,,,0.00,TxWx,2013-02-20 19:46:00,
2013-02-20 14:51:00,29.0,11.0,29.79,WSW,247,12.0,15.0,49,0.00,,,0.00,TxWx,2013-02-20 19:51:00,
2013-02-20 14:56:00,29.0,11.0,29.79,WSW,247,5.0,5.0,49,0.00,,,0.00,TxWx,2013-02-20 19:56:00,
2013-02-20 14:58:00,26.0,15.0,29.92,WNW,292,3.0,6.0,67,0.00,,,0.00,TxWx,2013-02-20 19:58:00,
2013-02-20 14:59:00,26.0,15.0,29.92,NNW,337,3.0,4.0,67,0.00,,,0.00,TxWx,2013-02-20 19:59:00,
2013-02-20 15:00:00,26.0,15.0,29.92,SW,225,6.0,6.0,67,0.00,,,0.00,TxWx,2013-02-20 20:00:00,
2013-02-20 15:01:00,29.0,11.0,29.79,SW,225,5.0,6.0,48,0.00,,,0.00,TxWx,2013-02-20 20:01:00,
2013-02-20 15:02:00,26.0,15.0,29.93,WSW,247,8.0,8.0,67,0.00,,,0.00,TxWx,2013-02-20 20:02:00,
2013-02-20 15:06:00,29.0,11.0,29.80,SW,225,14.0,16.0,48,0.00,,,0.00,TxWx,2013-02-20 20:06:00,
2013-02-20 15:11:00,29.0,11.0,29.80,West,270,16.0,24.0,49,0.00,,,0.00,TxWx,2013-02-20 20:11:00,
2013-02-20 15:16:00,29.0,11.0,29.80,WSW,247,10.0,14.0,48,0.00,,,0.00,TxWx,2013-02-20 20:16:00,
2013-02-20 15:21:00,29.0,11.0,29.80,WSW,247,17.0,21.0,48,0.00,,,0.00,TxWx,2013-02-20 20:21:00,
2013-02-20 15:26:00,29.0,11.0,29.80,WSW,247,11.0,13.0,48,0.00,,,0.00,TxWx,2013-02-20 20:26:00,
2013-02-20 15:31:00,29.0,10.0,29.80,SSW,202,10.0,17.0,47,0.00,,,0.00,TxWx,2013-02-20 20:31:00,
2013-02-20 15:37:00,29.0,10.0,29.80,WSW,247,10.0,16.0,47,0.00,,,0.00,TxWx,2013-02-20 20:37:00,
2013-02-20 15:41:00,26.0,15.0,29.92,South,180,6.0,11.0,67,0.00,,,0.00,TxWx,2013-02-20 20:41:00,
2013-02-20 15:42:00,29.0,10.0,29.81,WNW,292,14.0,18.0,46,0.00,,,0.00,TxWx,2013-02-20 20:42:00,
2013-02-20 15:46:00,26.0,15.0,29.93,West,270,11.0,13.0,66,0.00,,,0.00,TxWx,2013-02-20 20:46:00,
2013-02-20 15:47:00,29.0,10.0,29.80,WSW,247,14.0,14.0,47,0.00,,,0.00,TxWx,2013-02-20 20:47:00,
2013-02-20 15:50:00,26.0,15.0,29.92,NNW,337,4.0,4.0,65,0.00,,,0.00,TxWx,2013-02-20 20:50:00,
2013-02-20 15:52:00,29.0,10.0,29.81,WSW,247,10.0,19.0,47,0.00,,,0.00,TxWx,2013-02-20 20:52:00,
2013-02-20 15:57:00,29.0,10.0,29.81,West,270,19.0,22.0,47,0.00,,,0.00,TxWx,2013-02-20 20:57:00,
2013-02-20 16:02:00,29.0,11.0,29.81,West,270,11.0,12.0,48,0.00,,,0.00,TxWx,2013-02-20 21:02:00,
2013-02-20 16:07:00,29.0,11.0,29.82,WSW,247,12.0,13.0,49,0.00,,,0.00,TxWx,2013-02-20 21:07:00,
2013-02-20 16:10:00,26.0,15.0,29.92,SSW,202,1.0,3.0,65,0.00,,,0.00,TxWx,2013-02-20 21:10:00,
2013-02-20 16:12:00,29.0,12.0,29.82,WSW,247,9.0,16.0,50,0.00,,,0.00,TxWx,2013-02-20 21:12:00,
2013-02-20 16:17:00,29.0,12.0,29.82,SW,225,5.0,7.0,51,0.00,,,0.00,TxWx,2013-02-20 21:17:00,
2013-02-20 16:22:00,28.0,11.0,29.82,WSW,247,10.0,14.0,51,0.00,,,0.00,TxWx,2013-02-20 21:22:00,
2013-02-20 16:28:00,28.0,11.0,29.82,SW,225,5.0,9.0,51,0.00,,,0.00,TxWx,2013-02-20 21:28:00,
2013-02-20 16:33:00,28.0,12.0,29.82,WSW,247,8.0,8.0,52,0.00,,,0.00,TxWx,2013-02-20 21:33:00,
2013-02-20 16:38:00,28.0,12.0,29.83,WSW,247,11.0,15.0,53,0.00,,,0.00,TxWx,2013-02-20 21:38:00,
2013-02-20 16:43:00,28.0,12.0,29.83,SSW,202,11.0,11.0,54,0.00,,,0.00,TxWx,2013-02-20 21:43:00,
2013-02-20 16:48:00,28.0,12.0,29.83,SSW,202,10.0,11.0,54,0.00,,,0.00,TxWx,2013-02-20 21:48:00,
2013-02-20 16:53:00,28.0,13.0,29.83,SW,225,10.0,11.0,55,0.00,,,0.00,TxWx,2013-02-20 21:53:00,
2013-02-20 16:58:00,28.0,13.0,29.83,WSW,247,8.0,12.0,55,0.00,,,0.00,TxWx,2013-02-20 21:58:00,
2013-02-20 17:08:00,28.0,12.0,29.83,WSW,247,16.0,17.0,54,0.00,,,0.00,TxWx,2013-02-20 22:08:00,
2013-02-20 17:13:00,28.0,13.0,29.83,NNW,337,7.0,11.0,55,0.00,,,0.00,TxWx,2013-02-20 22:13:00,
2013-02-20 17:18:00,28.0,13.0,29.83,NE,45,1.0,5.0,55,0.00,,,0.00,TxWx,2013-02-20 22:18:00,
2013-02-20 17:23:00,28.0,13.0,29.83,WNW,292,7.0,11.0,55,0.00,,,0.00,TxWx,2013-02-20 22:23:00,
2013-02-20 17:28:00,28.0,13.0,29.84,SSW,202,5.0,7.0,55,0.00,,,0.00,TxWx,2013-02-20 22:28:00,
2013-02-20 17:33:00,28.0,13.0,29.84,WNW,292,6.0,10.0,56,0.00,,,0.00,TxWx,2013-02-20 22:33:00,
2013-02-20 17:38:00,27.0,13.0,29.83,SSW,202,6.0,12.0,57,0.00,,,0.00,TxWx,2013-02-20 22:38:00,
2013-02-20 17:43:00,28.0,14.0,29.84,West,270,5.0,6.0,57,0.00,,,0.00,TxWx,2013-02-20 22:43:00,
2013-02-20 17:48:00,27.0,13.0,29.84,SW,225,6.0,10.0,57,0.00,,,0.00,TxWx,2013-02-20 22:48:00,
2013-02-20 17:53:00,27.0,13.0,29.84,West,270,8.0,10.0,58,0.00,,,0.00,TxWx,2013-02-20 22:53:00,
2013-02-20 17:58:00,27.0,13.0,29.84,South,180,5.0,7.0,58,0.00,,,0.00,TxWx,2013-02-20 22:58:00,
2013-02-20 18:03:00,27.0,13.0,29.85,WSW,247,6.0,6.0,58,0.00,,,0.00,TxWx,2013-02-20 23:03:00,
2013-02-20 18:09:00,27.0,13.0,29.85,SW,225,7.0,7.0,58,0.00,,,0.00,TxWx,2013-02-20 23:09:00,
2013-02-20 18:14:00,27.0,13.0,29.86,WNW,292,2.0,3.0,59,0.00,,,0.00,TxWx,2013-02-20 23:14:00,
2013-02-20 18:19:00,27.0,13.0,29.87,SW,225,10.0,14.0,58,0.00,,,0.00,TxWx,2013-02-20 23:19:00,
2013-02-20 18:24:00,27.0,13.0,29.87,SW,225,11.0,13.0,58,0.00,,,0.00,TxWx,2013-02-20 23:24:00,
2013-02-20 18:29:00,27.0,13.0,29.87,SSE,157,1.0,3.0,59,0.00,,,0.00,TxWx,2013-02-20 23:29:00,
2013-02-20 18:34:00,27.0,13.0,29.87,West,270,14.0,15.0,59,0.00,,,0.00,TxWx,2013-02-20 23:34:00,
2013-02-20 18:39:00,27.0,13.0,29.87,WSW,247,11.0,16.0,59,0.00,,,0.00,TxWx,2013-02-20 23:39:00,
2013-02-20 18:44:00,27.0,13.0,29.87,WSW,247,8.0,10.0,59,0.00,,,0.00,TxWx,2013-02-20 23:44:00,
2013-02-20 18:49:00,27.0,14.0,29.87,SSE,157,17.0,17.0,59,0.00,,,0.00,TxWx,2013-02-20 23:49:00,
2013-02-20 18:57:00,27.0,14.0,29.87,SW,225,4.0,6.0,60,0.00,,,0.00,TxWx,2013-02-20 23:57:00,
2013-02-20 19:02:00,27.0,14.0,29.87,NNE,22,1.0,5.0,60,0.00,,,0.00,TxWx,2013-02-21 00:02:00,
2013-02-20 19:07:00,26.0,13.0,29.87,SW,225,18.0,18.0,61,0.00,,,0.00,TxWx,2013-02-21 00:07:00,
2013-02-20 19:12:00,26.0,14.0,29.87,SW,225,11.0,21.0,62,0.00,,,0.00,TxWx,2013-02-21 00:12:00,
2013-02-20 19:17:00,26.0,14.0,29.87,West,270,5.0,8.0,62,0.00,,,0.00,TxWx,2013-02-21 00:17:00,
2013-02-20 19:22:00,26.0,14.0,29.86,West,270,1.0,2.0,62,0.00,,,0.00,TxWx,2013-02-21 00:22:00,
2013-02-20 19:28:00,26.0,14.0,29.86,West,270,21.0,21.0,62,0.00,,,0.00,TxWx,2013-02-21 00:28:00,
2013-02-20 19:33:00,26.0,14.0,29.87,West,270,4.0,5.0,63,0.00,,,0.00,TxWx,2013-02-21 00:33:00,
2013-02-20 19:38:00,26.0,14.0,29.86,SW,225,9.0,10.0,63,0.00,,,0.00,TxWx,2013-02-21 00:38:00,
2013-02-20 19:43:00,26.0,14.0,29.87,West,270,6.0,6.0,63,0.00,,,0.00,TxWx,2013-02-21 00:43:00,
2013-02-20 19:48:00,26.0,14.0,29.86,NE,45,0.0,1.0,63,0.00,,,0.00,TxWx,2013-02-21 00:48:00,
2013-02-20 19:53:00,26.0,14.0,29.87,SW,225,8.0,8.0,63,0.00,,,0.00,TxWx,2013-02-21 00:53:00,
2013-02-20 19:58:00,26.0,14.0,29.87,WSW,247,5.0,6.0,64,0.00,,,0.00,TxWx,2013-02-21 00:58:00,
2013-02-20 20:03:00,26.0,14.0,29.87,West,270,7.0,12.0,64,0.00,,,0.00,TxWx,2013-02-21 01:03:00,
2013-02-20 20:08:00,26.0,14.0,29.87,WSW,247,6.0,7.0,64,0.00,,,0.00,TxWx,2013-02-21 01:08:00,
2013-02-20 20:13:00,26.0,15.0,29.87,SW,225,8.0,11.0,65,0.00,,,0.00,TxWx,2013-02-21 01:13:00,
2013-02-20 20:18:00,26.0,15.0,29.87,WNW,292,3.0,4.0,65,0.00,,,0.00,TxWx,2013-02-21 01:18:00,
2013-02-20 20:23:00,26.0,15.0,29.87,WSW,247,3.0,5.0,65,0.00,,,0.00,TxWx,2013-02-21 01:23:00,
2013-02-20 20:28:00,26.0,15.0,29.88,SSW,202,5.0,8.0,65,0.00,,,0.00,TxWx,2013-02-21 01:28:00,
2013-02-20 20:33:00,26.0,15.0,29.87,West,270,5.0,6.0,65,0.00,,,0.00,TxWx,2013-02-21 01:33:00,
2013-02-20 20:39:00,26.0,15.0,29.88,SW,225,4.0,6.0,66,0.00,,,0.00,TxWx,2013-02-21 01:39:00,
2013-02-20 20:44:00,26.0,15.0,29.87,NNE,22,5.0,10.0,66,0.00,,,0.00,TxWx,2013-02-21 01:44:00,
2013-02-20 20:49:00,26.0,15.0,29.88,NW,315,3.0,3.0,66,0.00,,,0.00,TxWx,2013-02-21 01:49:00,
2013-02-20 20:54:00,26.0,15.0,29.88,NW,315,6.0,6.0,66,0.00,,,0.00,TxWx,2013-02-21 01:54:00,
2013-02-20 20:59:00,26.0,15.0,29.88,WSW,247,8.0,12.0,66,0.00,,,0.00,TxWx,2013-02-21 01:59:00,
2013-02-20 21:04:00,26.0,15.0,29.89,West,270,8.0,8.0,67,0.00,,,0.00,TxWx,2013-02-21 02:04:00,
2013-02-20 21:09:00,26.0,15.0,29.89,West,270,5.0,6.0,67,0.00,,,0.00,TxWx,2013-02-21 02:09:00,
2013-02-20 21:14:00,26.0,15.0,29.89,SSW,202,6.0,9.0,67,0.00,,,0.00,TxWx,2013-02-21 02:14:00,
2013-02-20 21:19:00,26.0,16.0,29.90,SW,225,11.0,13.0,67,0.00,,,0.00,TxWx,2013-02-21 02:19:00,
2013-02-20 21:24:00,27.0,17.0,29.89,SSE,157,4.0,5.0,67,0.00,,,0.00,TxWx,2013-02-21 02:24:00,
2013-02-20 21:29:00,27.0,17.0,29.90,WSW,247,5.0,6.0,67,0.00,,,0.00,TxWx,2013-02-21 02:29:00,
2013-02-20 21:34:00,27.0,17.0,29.90,WSW,247,5.0,6.0,67,0.00,,,0.00,TxWx,2013-02-21 02:34:00,
2013-02-20 21:39:00,27.0,17.0,29.90,WSW,247,5.0,5.0,68,0.00,,,0.00,TxWx,2013-02-21 02:39:00,
2013-02-20 21:45:00,27.0,17.0,29.90,SW,225,5.0,6.0,68,0.00,,,0.00,TxWx,2013-02-21 02:45:00,
2013-02-20 21:50:00,27.0,17.0,29.91,South,180,10.0,11.0,68,0.00,,,0.00,TxWx,2013-02-21 02:50:00,
2013-02-20 21:55:00,27.0,17.0,29.91,South,180,5.0,7.0,69,0.00,,,0.00,TxWx,2013-02-21 02:55:00,
2013-02-20 22:00:00,27.0,17.0,29.91,SW,225,6.0,8.0,69,0.00,,,0.00,TxWx,2013-02-21 03:00:00,
2013-02-20 22:05:00,27.0,17.0,29.91,SSW,202,11.0,15.0,69,0.00,,,0.00,TxWx,2013-02-21 03:05:00,
2013-02-20 22:10:00,27.0,17.0,29.91,SSW,202,6.0,9.0,70,0.00,,,0.00,TxWx,2013-02-21 03:10:00,
2013-02-20 22:15:00,27.0,17.0,29.91,SSW,202,13.0,13.0,70,0.00,,,0.00,TxWx,2013-02-21 03:15:00,
2013-02-20 22:20:00,27.0,17.0,29.91,SSW,202,6.0,10.0,69,0.00,,,0.00,TxWx,2013-02-21 03:20:00,
2013-02-20 22:25:00,26.0,16.0,29.91,SSW,202,5.0,10.0,70,0.00,,,0.00,TxWx,2013-02-21 03:25:00,
2013-02-20 22:30:00,26.0,16.0,29.91,WSW,247,10.0,10.0,70,0.00,,,0.00,TxWx,2013-02-21 03:30:00,
2013-02-20 22:35:00,26.0,16.0,29.91,WSW,247,7.0,11.0,70,0.00,,,0.00,TxWx,2013-02-21 03:35:00,
2013-02-20 22:40:00,26.0,16.0,29.91,WSW,247,8.0,10.0,70,0.00,,,0.00,TxWx,2013-02-21 03:40:00,
2013-02-20 22:46:00,26.0,16.0,29.91,SSW,202,3.0,4.0,70,0.00,,,0.00,TxWx,2013-02-21 03:46:00,
2013-02-20 22:51:00,26.0,16.0,29.92,SSW,202,5.0,5.0,70,0.00,,,0.00,TxWx,2013-02-21 03:51:00,
2013-02-20 22:56:00,26.0,16.0,29.91,SW,225,11.0,13.0,70,0.00,,,0.00,TxWx,2013-02-21 03:56:00,
2013-02-20 23:01:00,26.0,16.0,29.92,SW,225,10.0,10.0,70,0.00,,,0.00,TxWx,2013-02-21 04:01:00,
2013-02-20 23:06:00,26.0,16.0,29.92,SSW,202,2.0,5.0,70,0.00,,,0.00,TxWx,2013-02-21 04:06:00,
2013-02-20 23:11:00,26.0,16.0,29.92,South,180,2.0,2.0,70,0.00,,,0.00,TxWx,2013-02-21 04:11:00,
2013-02-20 23:16:00,26.0,16.0,29.92,SSW,202,6.0,10.0,69,0.00,,,0.00,TxWx,2013-02-21 04:16:00,
2013-02-20 23:21:00,26.0,16.0,29.91,SW,225,4.0,5.0,69,0.00,,,0.00,TxWx,2013-02-21 04:21:00,
2013-02-20 23:26:00,26.0,16.0,29.92,WSW,247,5.0,5.0,69,0.00,,,0.00,TxWx,2013-02-21 04:26:00,
2013-02-20 23:31:00,26.0,16.0,29.92,SSW,202,8.0,12.0,69,0.00,,,0.00,TxWx,2013-02-21 04:31:00,
2013-02-20 23:36:00,26.0,16.0,29.92,WSW,247,3.0,9.0,69,0.00,,,0.00,TxWx,2013-02-21 04:36:00,
2013-02-20 23:41:00,26.0,16.0,29.91,WSW,247,7.0,9.0,69,0.00,,,0.00,TxWx,2013-02-21 04:41:00,
2013-02-20 23:46:00,27.0,17.0,29.92,WSW,247,3.0,3.0,69,0.00,,,0.00,TxWx,2013-02-21 04:46:00,
2013-02-20 23:51:00,27.0,17.0,29.92,SSW,202,5.0,5.0,69,0.00,,,0.00,TxWx,2013-02-21 04:51:00,
2013-02-20 23:57:00,27.0,17.0,29.92,WSW,247,3.0,3.0,69,0.00,,,0.00,TxWx,2013-02-21 04:57:00,